Location: StarHub Observatory
(35.2598°N, 77.5855°W)
Time: 11:46:42
(UTC-05:00)

Tiangong - Pass Details

Date: 13 December 2021
Orbit: 383 x 386 km, 41.5° (Epoch: 19 January)

Event Time Altitude Azimuth Distance (km) Brightness Sun altitude
Rises 18:12:52 0° 286° (WNW) 2,277 6.0 -14.7°
Reaches altitude 10° 18:15:10 10° 300° (WNW) 1,420 4.5 -15.1°
Maximum altitude 18:17:54 25° 358° (N) 825 2.6 -15.7°
Enters shadow 18:18:28 24° 17° (NNE) 858 2.5 -15.8°
